[[{"header":{"parameterUnit":"m.s-1","parameterCategory":1,"la1":30.2991,"la2":30.254,"lo1":-89.0895,"lo2":-89.0444,"dy":0.0017,"dx":0.0017,"nx":28,"ny":28,"refTime":"2023-09-18T09:00:00:Z","depth":0,"parameterNumber":2,"parameterNumberName":"U-component_of_WINDS"},"data":[0,0,0,0,0,0,0,0,0,0,0,0,0,0,0,0,0,0,0,0,0,0,0,0,0,0,0,0,0,0,0,0,0,0,0,0,0,0,0,0,0,0,0,0,0,0,0,0,0,0,0,0,0,0,0,0,0,0,0.1043,0.1043,0,0.1063,0.1063,0.1063,0.1176,0.1178,0.1181,0.1184,0.12,0.1198,0.1196,0,0,0,0,0,0,0,0,0,0,0,0,0,0.11,0.1098,0.1043,0.1043,0.1043,0.1062,0.1063,0.1063,0.1175,0.1178,0.1182,0.1185,0.1201,0.1198,0.1196,0,0,0,0,0,0,0,0,0,0,0,0,0,0.1093,0.1098,0.1043,0.1102,0.1107,0.1062,0.1063,0.1063,0.1174,0.1179,0.1183,0.1186,0.1202,0.1199,0.1196,0.1095,0,0,0.1186,0.1185,0,0,0,0,0,0,0,0,0.1093,0.1091,0.1093,0.1098,0.1104,0.1121,0.1089,0.1074,0.1173,0.1149,0.1184,0.1188,0.117,0.117,0.1165,0.1096,0.1096,0.1186,0.1184,0.1183,0.1182,0,0,0,0,0,0,0,0.1093,0.109,0.1051,0.1093,0.1099,0.1126,0.113,0.1087,0.1136,0.1151,0.1159,0.116,0.1174,0.1167,0.1166,0.1097,0.1186,0.1183,0.1181,0.118,0.0945,0.0941,0,0,0,0,0,0,0.1086,0.109,0.105,0.1051,0.1108,0.1122,0.1126,0.1111,0.1137,0.1145,0.1157,0.1166,0.1171,0.1169,0.1167,0.1049,0.1183,0.118,0.1178,0.0949,0.0944,0.0939,0,0,0,0,0,0,0.1087,0.1081,0.1049,0.1073,0.1071,0.1117,0.1099,0.1109,0.1103,0.1142,0.1151,0.1141,0.1174,0.1171,0.1112,0.1051,0.1178,0.1175,0.0954,0.0948,0.0942,0.0813,0,0,0,0,0,0,0.1088,0.1081,0.1043,0.1071,0.1069,0.0994,0.1096,0.1107,0.1098,0.1109,0.1129,0.1136,0.1177,0.1116,0.1109,0.1049,0.1173,0.096,0.0951,0.0944,0.0823,0.0803,0.0786,0,0,0,0,0,0.109,0.1006,0.1041,0.1035,0.1023,0.099,0.0989,0.1038,0.1092,0.1054,0.1079,0.1136,0.106,0.1109,0.1102,0.104,0.0964,0.0954,0.0944,0.0831,0.0807,0.0786,0,0,0,0,0,0,0.0968,0.1011,0.105,0.0973,0.0977,0.1009,0.0963,0.1011,0.0999,0.101,0.1072,0.1075,0.1006,0.1018,0.1072,0.0944,0.1021,0.101,0.0938,0.0915,0.0897,0.0894,0.117,0,0,0,0,0,0.0933,0.0903,0.0942,0.087,0.087,0.0916,0.0904,0.0942,0.0948,0.095,0.0971,0.0974,0.0951,0.0935,0.0916,0.0827,0.0831,0.0781,0.0762,0.0747,0.0735,0.0687,0.0664,0.0907,0.0907,0.0907,0,0,0.0858,0.0878,0.0855,0.0846,0.0854,0.0821,0.0917,0.0878,0.0853,0.0944,0.0888,0.0904,0.0912,0.0837,0.0805,0.0844,0.067,0.0734,0.0722,0.0718,0.0674,0.0651,0.0631,0.09,0.0901,0.0903,0,0,0.0705,0.0718,0.0659,0.0666,0.0677,0.0708,0.0694,0.0719,0.0733,0.068,0.0746,0.0719,0.0678,0.0681,0.0676,0.0526,0.0576,0.0519,0.042,0.0373,0.0354,0.0337,0.0281,0.026,0.0507,0.0507,0.0507,0,0.0611,0.0564,0.0622,0.0579,0.0572,0.0655,0.0595,0.0598,0.0602,0.0595,0.0641,0.0591,0.0603,0.0528,0.0492,0.0487,0.0471,0.0515,0.0352,0.0336,0.0321,0.0268,0.0247,0.05,0.05,0.0501,0.0502,0,0.0447,0.0414,0.0365,0.0367,0.0356,0.0304,0.0353,0.0334,0.0374,0.04,0.0344,0.0361,0.0346,0.0333,0.0371,0.0263,0.0287,0.0342,0.042,0.029,0.0241,0.0221,0.0489,0.0492,0.0494,0.0496,0,0,0.0214,0.0251,0.0231,0.0233,0.0253,0.0228,0.0181,0.0168,0.0149,0.015,0.011,0.0075,0.0125,0.0121,0.016,0.0119,-0.0004,0.0179,0.018,0.0141,-0.0124,-0.0168,-0.0192,0.0032,0.0028,0.0025,-0.0125,0,0.0065,-0.0015,0.0037,-0.0051,-0.0082,-0.0002,-0.0044,-0.0037,-0.0013,-0.0037,-0.001,-0.0037,0.0033,0.0031,-0.0006,0.0019,-0.0057,0.0031,-0.0008,-0.001,-0.0016,-0.0217,-0.0263,-0.0406,-0.0144,-0.0147,-0.0149,0,-0.0121,-0.0127,-0.0219,-0.0193,-0.0203,-0.0242,-0.025,-0.0272,-0.0262,-0.0242,-0.0247,-0.0197,-0.0242,-0.0162,-0.0226,-0.0167,-0.0179,-0.0169,-0.0173,-0.0178,-0.0091,-0.0231,-0.045,-0.0474,-0.0178,-0.0176,-0.0174,0,-0.0285,-0.0316,-0.0375,-0.0375,-0.0346,-0.0375,-0.0365,-0.035,-0.0362,-0.0368,-0.0375,-0.0387,-0.0395,-0.0406,-0.0361,-0.0306,-0.0431,-0.0346,-0.0418,-0.042,-0.0451,-0.0451,-0.068,-0.0453,-0.0453,-0.0453,-0.0452,0,-0.0459,-0.0519,-0.0449,-0.0486,-0.055,-0.0489,-0.0555,-0.0536,-0.0524,-0.0557,-0.0487,-0.0519,-0.0456,-0.0482,-0.0446,-0.0506,-0.0509,-0.0495,-0.0486,-0.0504,-0.0506,-0.0514,-0.0504,-0.0458,-0.0457,-0.0456,-0.0455,0,-0.0656,-0.0611,-0.067,-0.0637,-0.0629,-0.0679,-0.0651,-0.0684,-0.0654,-0.0696,-0.0702,-0.0656,-0.0683,-0.0637,-0.0659,-0.0635,-0.0719,-0.0692,-0.0722,-0.0716,-0.0791,-0.0786,-0.1037,-0.1068,-0.0818,-0.082,-0.0822,0,-0.0772,-0.0816,-0.0787,-0.0803,-0.0796,-0.0823,-0.0833,-0.0774,-0.0789,-0.078,-0.0815,-0.0835,-0.0849,-0.0895,-0.0865,-0.0881,-0.0856,-0.0943,-0.0859,-0.0876,-0.0862,-0.0861,-0.0867,-0.0962,-0.0965,-0.0967,-0.0969,0,-0.0984,-0.0959,-0.0976,-0.0986,-0.1,-0.1005,-0.1006,-0.1023,-0.0961,-0.098,-0.1006,-0.1016,-0.1037,-0.106,-0.1068,-0.1057,-0.1005,-0.0995,-0.1013,-0.1034,-0.1051,-0.1046,-0.0774,-0.0991,-0.0989,-0.0987,-0.0986,-0.0985,-0.1146,-0.1182,-0.1167,-0.1189,-0.1182,-0.1183,-0.1213,-0.1186,-0.1206,-0.1218,-0.1182,-0.1217,-0.1206,-0.1211,-0.1206,-0.1233,-0.1195,-0.1221,-0.1228,-0.1236,-0.125,-0.1044,-0.1234,-0.1234,-0.1233,-0.1232,-0.1232,0,-0.1357,-0.1343,-0.1363,-0.1365,-0.1383,-0.1327,-0.1324,-0.1343,-0.1374,-0.1368,-0.1382,-0.1412,-0.1433,-0.1403,-0.1419,-0.1446,-0.1423,-0.1453,-0.1452,-0.1451,-0.1281,-0.1266,-0.1472,-0.1472,-0.1472,-0.1472,-0.1472,-0.1472,-0.147,-0.1528,-0.1501,-0.1555,-0.154,-0.1573,-0.1576,-0.1578,-0.1572,-0.1609,-0.1625,-0.1604,-0.1589,-0.1603,-0.162,-0.161,-0.1621,-0.1661,-0.1644,-0.1486,-0.1463,-0.1441,-0.1426,-0.1663,-0.1663,-0.1812,-0.1813,-0.1814]},{"header":{"parameterUnit":"m.s-1","parameterCategory":1,"la1":30.2991,"la2":30.254,"lo1":-89.0895,"lo2":-89.0444,"dy":0.0017,"dx":0.0017,"nx":28,"ny":28,"refTime":"2023-09-18T09:00:00:Z","depth":0,"parameterNumber":3,"parameterNumberName":"V-component_of_WINDS"},"data":[0,0,0,0,0,0,0,0,0,0,0,0,0,0,0,0,0,0,0,0,0,0,0,0,0,0,0,0,0,0,0,0,0,0,0,0,0,0,0,0,0,0,0,0,0,0,0,0,0,0,0,0,0,0,0,0,0,0,-1.3558,-1.3559,0,-1.3645,-1.3646,-1.3647,-1.371,-1.3711,-1.3711,-1.3712,-1.3802,-1.3804,-1.3806,0,0,0,0,0,0,0,0,0,0,0,0,0,-1.345,-1.3451,-1.3558,-1.3559,-1.356,-1.3645,-1.3646,-1.3647,-1.371,-1.3711,-1.3712,-1.3712,-1.3801,-1.3804,-1.3806,0,0,0,0,0,0,0,0,0,0,0,0,0,-1.3513,-1.3452,-1.3558,-1.3602,-1.3607,-1.3644,-1.3646,-1.3647,-1.371,-1.3711,-1.3712,-1.3712,-1.3801,-1.3803,-1.3806,-1.3807,0,0,-1.3815,-1.3816,0,0,0,0,0,0,0,0,-1.3509,-1.3516,-1.3594,-1.3599,-1.3604,-1.3668,-1.3641,-1.3701,-1.371,-1.3671,-1.3712,-1.3713,-1.3757,-1.3763,-1.3778,-1.3812,-1.3816,-1.3815,-1.3817,-1.3818,-1.3819,0,0,0,0,0,0,0,-1.3504,-1.3513,-1.3592,-1.3595,-1.3601,-1.3618,-1.3628,-1.3652,-1.3708,-1.3674,-1.3679,-1.3688,-1.376,-1.3775,-1.378,-1.3817,-1.3815,-1.3818,-1.3819,-1.382,-1.3859,-1.3859,0,0,0,0,0,0,-1.3493,-1.3509,-1.359,-1.3595,-1.3558,-1.3619,-1.363,-1.3646,-1.3708,-1.3718,-1.3688,-1.3691,-1.377,-1.3777,-1.3784,-1.3792,-1.3818,-1.3821,-1.3822,-1.386,-1.3859,-1.3859,0,0,0,0,0,0,-1.349,-1.35,-1.3586,-1.3553,-1.3566,-1.362,-1.3638,-1.3648,-1.3663,-1.3718,-1.3729,-1.3693,-1.3771,-1.378,-1.3802,-1.3796,-1.3822,-1.3825,-1.3861,-1.386,-1.3859,-1.3806,0,0,0,0,0,0,-1.3487,-1.3498,-1.3498,-1.3553,-1.3567,-1.3602,-1.3637,-1.3649,-1.3668,-1.3673,-1.3726,-1.3735,-1.3772,-1.3797,-1.3805,-1.38,-1.3827,-1.3862,-1.386,-1.3859,-1.3808,-1.3803,-1.3798,0,0,0,0,0,-1.3483,-1.348,-1.3498,-1.3508,-1.3569,-1.3601,-1.3609,-1.3651,-1.3667,-1.3668,-1.3704,-1.3734,-1.3795,-1.3799,-1.3808,-1.3804,-1.3862,-1.3861,-1.3859,-1.381,-1.3804,-1.3798,0,0,0,0,0,0,-1.3423,-1.3488,-1.3509,-1.3523,-1.3556,-1.3612,-1.3615,-1.3642,-1.3672,-1.3676,-1.3727,-1.3738,-1.3755,-1.3782,-1.3785,-1.381,-1.3832,-1.3833,-1.3792,-1.3786,-1.3782,-1.3776,-1.3829,0,0,0,0,0,-1.3411,-1.3432,-1.3487,-1.3494,-1.351,-1.3559,-1.3575,-1.3604,-1.3641,-1.3655,-1.3693,-1.3728,-1.3755,-1.3772,-1.38,-1.3812,-1.3826,-1.3814,-1.3809,-1.3805,-1.3805,-1.3816,-1.3812,-1.3854,-1.3854,-1.3854,0,0,-1.3388,-1.3426,-1.3435,-1.3483,-1.3513,-1.3534,-1.3571,-1.3591,-1.3608,-1.3659,-1.3682,-1.3711,-1.3753,-1.3771,-1.3781,-1.3793,-1.3796,-1.3803,-1.3799,-1.3801,-1.3814,-1.381,-1.3806,-1.3853,-1.3853,-1.3853,0,0,-1.3356,-1.3385,-1.3396,-1.3425,-1.3469,-1.3502,-1.3504,-1.3556,-1.3577,-1.3602,-1.3641,-1.3662,-1.3707,-1.3737,-1.3757,-1.3739,-1.3768,-1.3746,-1.3721,-1.3731,-1.3728,-1.3725,-1.3721,-1.3718,-1.3746,-1.3746,-1.3746,0,-1.3321,-1.3354,-1.3398,-1.3417,-1.3438,-1.3485,-1.3497,-1.3523,-1.3573,-1.3587,-1.3601,-1.366,-1.3692,-1.3718,-1.3714,-1.3728,-1.3734,-1.3741,-1.3725,-1.3723,-1.3721,-1.3717,-1.3715,-1.3743,-1.3743,-1.3743,-1.3744,0,-1.3311,-1.3333,-1.3336,-1.3385,-1.3406,-1.3421,-1.3468,-1.3484,-1.3512,-1.3544,-1.357,-1.3609,-1.3648,-1.3656,-1.3682,-1.3687,-1.3694,-1.3715,-1.3739,-1.3713,-1.3711,-1.371,-1.3739,-1.374,-1.3741,-1.3741,0,0,-1.3244,-1.3317,-1.3318,-1.3341,-1.3394,-1.3412,-1.343,-1.3467,-1.3482,-1.3515,-1.3533,-1.3571,-1.3592,-1.3615,-1.3646,-1.3655,-1.364,-1.3676,-1.3678,-1.367,-1.365,-1.3635,-1.3632,-1.3659,-1.3659,-1.3659,-1.3647,0,-1.3222,-1.3256,-1.3297,-1.3318,-1.3341,-1.3387,-1.3403,-1.3437,-1.3468,-1.3492,-1.3526,-1.3553,-1.3577,-1.3592,-1.3603,-1.364,-1.3637,-1.3641,-1.3678,-1.3679,-1.3668,-1.3631,-1.3615,-1.3601,-1.3646,-1.3646,-1.3646,0,-1.3201,-1.3233,-1.3256,-1.3309,-1.332,-1.3333,-1.3372,-1.3394,-1.3435,-1.3457,-1.3484,-1.3517,-1.354,-1.356,-1.3594,-1.3595,-1.3613,-1.3633,-1.3634,-1.3641,-1.3662,-1.3638,-1.3598,-1.3597,-1.3645,-1.3645,-1.3645,0,-1.3152,-1.3201,-1.3222,-1.3241,-1.3302,-1.3311,-1.3337,-1.3378,-1.3399,-1.3433,-1.3447,-1.3482,-1.3503,-1.353,-1.3573,-1.3583,-1.3603,-1.3626,-1.3623,-1.3622,-1.3627,-1.3626,-1.359,-1.3634,-1.3634,-1.3634,-1.3634,0,-1.3125,-1.3138,-1.3202,-1.3215,-1.3232,-1.3279,-1.3294,-1.3324,-1.3361,-1.3382,-1.3423,-1.3442,-1.3496,-1.3522,-1.3556,-1.358,-1.3588,-1.3608,-1.3617,-1.3605,-1.3603,-1.3619,-1.3621,-1.3634,-1.3634,-1.3634,-1.3634,0,-1.3074,-1.3117,-1.3144,-1.32,-1.3214,-1.3224,-1.3273,-1.3288,-1.3321,-1.3347,-1.3356,-1.3409,-1.3441,-1.3486,-1.3532,-1.3555,-1.3575,-1.3588,-1.3561,-1.3567,-1.3563,-1.3563,-1.3538,-1.3538,-1.3579,-1.3579,-1.3578,0,-1.3055,-1.3066,-1.3124,-1.3141,-1.3165,-1.3192,-1.3213,-1.326,-1.3281,-1.333,-1.3339,-1.3375,-1.3406,-1.3456,-1.3499,-1.3535,-1.3551,-1.354,-1.3557,-1.3546,-1.3554,-1.3553,-1.3556,-1.3536,-1.3535,-1.3535,-1.3534,0,-1.3016,-1.3037,-1.3066,-1.3104,-1.3128,-1.3159,-1.3193,-1.3204,-1.3259,-1.328,-1.3314,-1.3338,-1.3386,-1.3422,-1.3464,-1.3492,-1.3523,-1.3528,-1.353,-1.3519,-1.3504,-1.3514,-1.3552,-1.3529,-1.3529,-1.353,-1.353,-1.353,-1.2982,-1.2996,-1.3039,-1.307,-1.3101,-1.3131,-1.3149,-1.3185,-1.3214,-1.3256,-1.3282,-1.3316,-1.3358,-1.3418,-1.3445,-1.3472,-1.3485,-1.3486,-1.3487,-1.3487,-1.3485,-1.3498,-1.348,-1.348,-1.348,-1.348,-1.3481,0,-1.2948,-1.2978,-1.3007,-1.3053,-1.3078,-1.3104,-1.3143,-1.3163,-1.3191,-1.3228,-1.3258,-1.3298,-1.3334,-1.3379,-1.3418,-1.3432,-1.3447,-1.344,-1.3441,-1.3447,-1.347,-1.3466,-1.3428,-1.3428,-1.3428,-1.3428,-1.3428,-1.3428,-1.2933,-1.2958,-1.2984,-1.3025,-1.3055,-1.3088,-1.3108,-1.3137,-1.3167,-1.321,-1.324,-1.3269,-1.3311,-1.3353,-1.3387,-1.34,-1.3413,-1.3403,-1.342,-1.3441,-1.3445,-1.345,-1.3446,-1.3405,-1.3405,-1.3395,-1.3395,-1.3395]}]]